Regional Weather Roundup
Issued by NWS

Home | Current Version | Previous Version | Graphics & Text | Print | Product List | Glossary On
Versions: 1 2 3 4 5 6 7 8 9 10 11 12 13 14 15 16 17 18 19 20 21 22 23 24 25 26 27 28 29 30 31 32 33 34 35 36 37 38 39 40 41 42 43 44 45 46 47 48 49 50
000
ASUS45 KSLC 292210
RWRUT

UTAH REGIONAL WEATHER ROUNDUP
NATIONAL WEATHER SERVICE SALT LAKE CITY UT
400 PM MDT WED JUL 29 2015

UTZ001>011-023>025-292300-

NORTHERN UTAH

CITY           SKY/WX    TMP DP  RH WIND       PRES   REMARKS
BRIGHAM CITY   SUNNY     82  17   9 W6        30.27F
HILL AFB       SUNNY     81  25  13 VRB5      30.29F
LOGAN          SUNNY     82  22  11 CALM      30.27F
OGDEN          SUNNY     82  27  13 NW7       30.27F
PROVO AIRPORT  NOT AVBL
SALT LAKE CITY SUNNY     83  22  10 VRB3      30.24F
VERNAL         SUNNY     83   4   5 CALM      30.26F
WENDOVER       SUNNY     82  28  14 SE3       30.27F
HEBER CITY     SUNNY     86  27  11 NW3       30.30S
WEST JORDAN    SUNNY     82  34  17 NW7       30.28F

$$

UTZ012>022-026-027-292300-

SOUTHERN/CENTRAL UTAH

CITY           SKY/WX    TMP DP  RH WIND       PRES   REMARKS
BLANDING       SUNNY     91  30  11 SW7       30.31S
BRYCE CANYON   MOSUNNY   83  29  14 N6        30.39F
CEDAR CITY     SUNNY     90  17   7 VRB6      30.24F
DELTA          SUNNY     88  24   9 NW9       30.24F
HANKSVILLE     SUNNY     95  28   9 SE3       30.16F
MILFORD        SUNNY     92  30  11 N16       30.22F
MOAB/CYNLANDS  SUNNY     92  23   8 CALM      30.15F
PRICE          SUNNY     88  19   8 VRB5G23   30.27F
ST GEORGE      CLEAR    100  34  10 NW5       30.04F HX  94

$$

REGIONAL REPORTS     COLORADO/ARIZONA

CITY           SKY/WX    TMP DP  RH WIND       PRES   REMARKS
CRAIG, CO      SUNNY     86  21   9 NW17      30.31F
GRAND JUNCTION MOSUNNY   91  25   9 W10       30.18F
RIFLE          MOSUNNY   89  27  10 NW5       30.22F
MONTROSE       SUNNY     89  31  12 N12       30.25F
CORTEZ         PTSUNNY   80  40  23 S12       30.25F
PAGE, AZ       MOSUNNY   96  24   7 N8        30.12F HX  90
GRAND CANYON   MOSUNNY   87  25  10 N7G21     30.30F
KINGMAN        MOSUNNY   96  50  20 SW12G25   30.08F HX  93
FLAGSTAFF      CLOUDY    73  46  38 VRB7G18   30.35S

$$

REGIONAL REPORTS    NEVADA/IDAHO/WYOMING

CITY           SKY/WX    TMP DP  RH WIND       PRES   REMARKS
LAS VEGAS, NV  MOSUNNY  103  37  10 VRB3      29.94F HX  97
ELY            SUNNY     85  22  10 S9G16     30.29F
ELKO           SUNNY     87  22   9 W5        30.24F
POCATELLO, ID  SUNNY     80  36  20 NW8       30.29F
BURLEY         SUNNY     81  28  14 CALM      30.24F
EVANSTON, WY   MOSUNNY   80  14   8 MISG      30.40F
ROCK SPRINGS   SUNNY     76  14   9 VRB5G17   30.38F
KEMMERER       SUNNY     75   5   6 W8G18     30.43S

$$


USA.gov is the U.S. government's official web portal to all federal, state and local government web resources and services.